WADD

Denpasar/Ngurah Rai International Airport

Airport
ICAO code
WADD
IATA Code
DPS
Summary
ICAO Region
APAC
ICAO Territory
Location

Denpasar, Badung, Bali

Serving
Denpasar
Elevation
4 ft
Coordinates
8° 44' 53" S , 115° 10' 3" E
KCC
Metar
Observation
WADD 281930Z VRB02KT 9999 SCT017 25/23 Q1008 NOSIG
Station
BALI INTL
Date/Time
2022-09-28 19:30:00
Wind speed
02 kts
Lowest cloud amount
scattered clouds
Temperature
25°C
Dew point
23°C
Humidity
88%
QNH
1008 hPa
Weather condition
n/a

International airport serving Bali and Denpasar.

Climatology

Tropical Savanna climate (Köppen climate classification Aw) - monthly mean temperature above 18°C in every month of the year and a pronounced dry season.

Airport map

Aerial View

SKYbrary Partners:

Safety knowledge contributed by: